Location: Abundant Grace Fellowship
(35.0349°N, 90.0924°W)
Time: 22:32:45
(UTC+00:00)

Okean 2 - Pass Details

Date: 18 January 2026
Orbit: 515 x 525 km, 82.5° (Epoch: 13 February)

Event Time Altitude Azimuth Distance (km) Brightness Sun altitude
Exits shadow 11:49:07 27° 255° (WSW) 1,005 4.2 -15.9°
Drops below altitude 10° 11:51:55 10° 209° (SSW) 1,735 5.7 -15.3°
Sets 11:54:14 0° 198° (SSW) 2,619 6.8 -14.8°
